UAE42 KLAX-OEJN

Flight info

Callsign UAE42
Flight time N/A
Altitude 31000
Route OSHNN1 BEALE DCT BAWER DCT DBL DCT SNY DCT KD75A DCT KP03G DCT KP09I DCT KP15K DCT YMO/N0493F330 DCT MEMSO DCT YWK DCT RIKAL/M084F340 NATW BEXET/N0481F350 DCT DIRUM DCT MORAG DCT NUCHU L607 BIG L15 MOTOX DCT RUCAC DCT LESDO DCT ETINO DCT DEVDI DCT RIPUS/N0488F370 DCT RESIA DCT LABIN DCT VAKSU DCT RODON DCT DIMIS DCT SALUN N705 BOPIX N710 TAKRI P751 AST/N0485F390 P751 LXR M999 MUVOL
Aircraft B77W/H-SDE1E2E3FGHIJ2J3J4J5M1RWXY/LB1D1

Departure

Time 2026-05-06 23:31
Airport Los Angeles International Airport (KLAX)

Arrival

Time N/A
Airport King Abdulaziz International Airport (OEJN)
Time Latitude Longitude Altitude Speed Heading
2026-05-06 22:34 33.94177 -118.41103 131 ft 0 kts 83°
2026-05-06 23:17 33.94176 -118.41112 131 ft 2 kts 83°
2026-05-06 23:17 33.94174 -118.41130 130 ft 2 kts 83°
2026-05-06 23:17 33.94172 -118.41148 130 ft 2 kts 83°
2026-05-06 23:18 33.94171 -118.41166 129 ft 2 kts 96°
2026-05-06 23:18 33.94175 -118.41183 129 ft 2 kts 118°
2026-05-06 23:18 33.94184 -118.41199 130 ft 2 kts 135°
2026-05-06 23:18 33.94196 -118.41209 130 ft 2 kts 153°
2026-05-06 23:19 33.94210 -118.41215 130 ft 1 kts 171°
2026-05-06 23:19 33.94214 -118.41216 130 ft 0 kts 174°
2026-05-06 23:22 33.94210 -118.41216 130 ft 3 kts 174°
2026-05-06 23:22 33.94171 -118.41210 130 ft 7 kts 173°
2026-05-06 23:23 33.94106 -118.41200 131 ft 11 kts 173°
2026-05-06 23:23 33.94014 -118.41187 131 ft 14 kts 173°
2026-05-06 23:23 33.93910 -118.41171 132 ft 13 kts 173°
2026-05-06 23:23 33.93824 -118.41158 132 ft 11 kts 173°
2026-05-06 23:24 33.93777 -118.41143 133 ft 4 kts 136°
2026-05-06 23:24 33.93768 -118.41107 133 ft 6 kts 89°
2026-05-06 23:24 33.93774 -118.41029 133 ft 12 kts 83°
2026-05-06 23:24 33.93787 -118.40907 133 ft 17 kts 83°
2026-05-06 23:25 33.93803 -118.40745 132 ft 21 kts 83°
2026-05-06 23:25 33.93825 -118.40546 131 ft 26 kts 83°
2026-05-06 23:25 33.93846 -118.40335 129 ft 24 kts 83°
2026-05-06 23:25 33.93866 -118.40142 126 ft 22 kts 83°
2026-05-06 23:26 33.93883 -118.39966 124 ft 20 kts 83°
2026-05-06 23:26 33.93901 -118.39799 121 ft 18 kts 83°
2026-05-06 23:26 33.93917 -118.39641 119 ft 20 kts 83°
2026-05-06 23:26 33.93936 -118.39462 117 ft 23 kts 83°
2026-05-06 23:27 33.93957 -118.39261 115 ft 25 kts 83°
2026-05-06 23:27 33.93978 -118.39042 114 ft 26 kts 83°
2026-05-06 23:27 33.93998 -118.38834 112 ft 23 kts 84°
2026-05-06 23:27 33.94018 -118.38645 111 ft 20 kts 83°
2026-05-06 23:28 33.94034 -118.38483 111 ft 18 kts 83°
2026-05-06 23:28 33.94049 -118.38339 110 ft 16 kts 83°
2026-05-06 23:28 33.94062 -118.38213 110 ft 13 kts 83°
2026-05-06 23:28 33.94073 -118.38107 109 ft 12 kts 83°
2026-05-06 23:29 33.94065 -118.38021 109 ft 9 kts 142°
2026-05-06 23:29 33.94011 -118.38000 109 ft 6 kts 176°
2026-05-06 23:29 33.93988 -118.38021 109 ft 3 kts 249°
2026-05-06 23:29 33.93981 -118.38052 109 ft 3 kts 263°
2026-05-06 23:30 33.93975 -118.38116 109 ft 16 kts 263°
2026-05-06 23:30 33.93937 -118.38495 111 ft 75 kts 263°
2026-05-06 23:30 33.93849 -118.39347 116 ft 129 kts 263°
2026-05-06 23:30 33.93716 -118.40635 137 ft 175 kts 262°
2026-05-06 23:31 33.93550 -118.42122 629 ft 181 kts 261°
2026-05-06 23:31 33.93384 -118.43641 1145 ft 193 kts 263°
2026-05-06 23:31 33.93203 -118.45265 1423 ft 201 kts 255°
2026-05-06 23:31 33.92527 -118.46836 1447 ft 219 kts 234°
2026-05-06 23:32 33.91545 -118.48349 1504 ft 238 kts 232°
2026-05-06 23:32 33.90473 -118.49950 1771 ft 250 kts 231°
2026-05-06 23:32 33.89329 -118.51566 2259 ft 258 kts 231°
2026-05-06 23:32 33.88166 -118.53212 3199 ft 260 kts 232°
2026-05-06 23:33 33.86922 -118.54814 3696 ft 271 kts 218°
2026-05-06 23:33 33.85190 -118.55769 4149 ft 282 kts 189°
2026-05-06 23:33 33.83235 -118.55731 4765 ft 284 kts 169°
2026-05-06 23:33 33.81274 -118.55236 5412 ft 286 kts 166°
2026-05-06 23:34 33.79340 -118.54694 6013 ft 290 kts 166°
2026-05-06 23:34 33.77359 -118.54147 6623 ft 293 kts 166°
2026-05-06 23:34 33.75338 -118.53597 7207 ft 297 kts 166°
2026-05-06 23:34 33.73313 -118.53051 7828 ft 299 kts 165°
2026-05-06 23:35 33.71315 -118.52322 8304 ft 301 kts 148°
2026-05-06 23:35 33.69708 -118.50742 8747 ft 299 kts 122°
2026-05-06 23:35 33.68731 -118.48566 9367 ft 294 kts 108°
2026-05-06 23:35 33.68005 -118.46286 10009 ft 292 kts 106°
2026-05-06 23:36 33.67321 -118.43980 10414 ft 301 kts 105°
2026-05-06 23:36 33.66598 -118.41516 10656 ft 317 kts 105°
2026-05-06 23:36 33.65846 -118.38969 10883 ft 333 kts 105°
2026-05-06 23:36 33.65069 -118.36300 11154 ft 346 kts 103°
2026-05-06 23:37 33.64556 -118.33424 11395 ft 357 kts 93°
2026-05-06 23:37 33.64446 -118.30396 11626 ft 369 kts 87°
2026-05-06 23:37 33.64449 -118.27280 12130 ft 375 kts 87°
2026-05-06 23:37 33.64627 -118.24178 12815 ft 373 kts 78°
2026-05-06 23:38 33.65236 -118.21175 13431 ft 372 kts 69°
2026-05-06 23:38 33.66271 -118.18327 14019 ft 373 kts 60°
2026-05-06 23:38 33.67702 -118.15736 14595 ft 375 kts 50°
2026-05-06 23:38 33.69517 -118.13449 15187 ft 377 kts 41°
2026-05-06 23:39 33.71589 -118.11511 15789 ft 379 kts 37°
2026-05-06 23:39 33.73720 -118.09621 16372 ft 382 kts 37°
2026-05-06 23:39 33.75888 -118.07695 16892 ft 386 kts 37°
2026-05-06 23:39 33.78054 -118.05763 17399 ft 389 kts 37°
2026-05-06 23:40 33.80232 -118.03815 17897 ft 393 kts 37°
2026-05-06 23:40 33.82450 -118.01827 18378 ft 397 kts 37°
2026-05-06 23:40 33.84664 -117.99840 18893 ft 400 kts 37°
2026-05-06 23:40 33.86891 -117.97838 19411 ft 402 kts 37°
2026-05-06 23:41 33.89140 -117.95815 19892 ft 405 kts 37°
2026-05-06 23:41 33.91428 -117.93752 20385 ft 408 kts 37°
2026-05-06 23:41 33.93675 -117.91704 20882 ft 410 kts 37°
2026-05-06 23:41 33.95948 -117.89624 21348 ft 412 kts 37°
2026-05-06 23:42 33.98231 -117.87537 21806 ft 414 kts 37°
2026-05-06 23:42 34.00551 -117.85413 22235 ft 417 kts 37°
2026-05-06 23:42 34.02858 -117.83301 22626 ft 421 kts 37°
2026-05-06 23:42 34.05181 -117.81172 23046 ft 423 kts 37°
2026-05-06 23:43 34.07547 -117.78989 23466 ft 425 kts 39°
2026-05-06 23:43 34.09694 -117.76556 23853 ft 429 kts 46°
2026-05-06 23:43 34.11624 -117.73789 24307 ft 431 kts 49°
2026-05-06 23:43 34.13533 -117.70957 24786 ft 432 kts 49°
2026-05-06 23:44 34.15431 -117.68137 25173 ft 434 kts 49°
2026-05-06 23:44 34.17329 -117.65314 25575 ft 436 kts 49°
2026-05-06 23:44 34.19231 -117.62486 26009 ft 437 kts 49°
2026-05-06 23:44 34.21176 -117.59593 26395 ft 440 kts 49°
2026-05-06 23:45 34.23111 -117.56713 26694 ft 443 kts 49°
2026-05-06 23:45 34.25040 -117.53839 27059 ft 445 kts 49°
2026-05-06 23:45 34.27008 -117.50905 27499 ft 446 kts 49°
2026-05-06 23:45 34.28961 -117.47992 27910 ft 447 kts 49°
2026-05-06 23:46 34.30935 -117.45045 28248 ft 450 kts 49°
2026-05-06 23:46 34.32902 -117.42107 28588 ft 452 kts 49°
2026-05-06 23:46 34.34875 -117.39156 28914 ft 455 kts 49°
2026-05-06 23:46 34.36891 -117.36139 29246 ft 457 kts 49°
2026-05-06 23:47 34.38898 -117.33133 29675 ft 457 kts 50°
2026-05-06 23:47 34.40870 -117.30177 30196 ft 455 kts 50°
2026-05-06 23:47 34.42852 -117.27201 30796 ft 451 kts 50°
2026-05-06 23:47 34.44825 -117.24239 31096 ft 452 kts 50°
2026-05-06 23:48 34.46800 -117.21272 31107 ft 453 kts 50°
2026-05-06 23:48 34.50739 -117.15344 31094 ft 449 kts 50°
2026-05-06 23:49 34.54689 -117.09394 31085 ft 451 kts 50°
2026-05-06 23:49 34.58712 -117.03535 31084 ft 450 kts 49°
2026-05-06 23:50 34.62742 -116.97678 31085 ft 453 kts 49°
2026-05-06 23:50 34.68782 -116.88869 31080 ft 451 kts 49°
2026-05-06 23:51 34.72789 -116.83009 31083 ft 452 kts 49°
2026-05-06 23:51 34.76771 -116.77174 31090 ft 450 kts 49°
2026-05-06 23:52 34.80764 -116.71311 31078 ft 452 kts 49°
2026-05-06 23:52 34.84786 -116.65397 31055 ft 450 kts 49°
2026-05-06 23:53 34.88919 -116.59691 31030 ft 452 kts 46°
2026-05-06 23:53 34.93162 -116.54074 31012 ft 451 kts 46°
2026-05-06 23:54 34.97404 -116.48425 31003 ft 450 kts 46°
2026-05-06 23:54 35.01611 -116.42799 30988 ft 450 kts 46°
2026-05-06 23:55 35.05827 -116.37146 30986 ft 450 kts 46°
2026-05-06 23:55 35.10065 -116.31450 30985 ft 452 kts 47°
2026-05-06 23:56 35.14259 -116.25802 30997 ft 452 kts 47°
2026-05-06 23:56 35.18473 -116.20117 31006 ft 452 kts 47°
2026-05-06 23:57 35.22707 -116.14395 30996 ft 451 kts 47°
2026-05-06 23:57 35.26923 -116.08688 30984 ft 454 kts 47°
2026-05-06 23:58 35.31146 -116.02962 30983 ft 452 kts 47°
2026-05-06 23:58 35.35356 -115.97243 30991 ft 453 kts 47°
2026-05-06 23:59 35.39595 -115.91475 31019 ft 453 kts 47°
2026-05-06 23:59 35.43806 -115.85735 31034 ft 452 kts 47°
2026-05-07 00:00 35.48004 -115.80003 31044 ft 452 kts 47°
2026-05-07 00:00 35.51517 -115.75199 31046 ft 454 kts 47°
2026-05-07 00:01 35.56435 -115.68463 31049 ft 454 kts 46°
2026-05-07 00:01 35.60651 -115.62678 31053 ft 454 kts 47°
2026-05-07 00:02 35.64869 -115.56880 31062 ft 454 kts 46°
2026-05-07 00:02 35.69087 -115.51072 31084 ft 455 kts 46°
2026-05-07 00:03 35.73268 -115.45303 31092 ft 455 kts 46°
2026-05-07 00:03 35.77506 -115.39447 31078 ft 453 kts 46°
2026-05-07 00:04 35.81695 -115.33646 31067 ft 454 kts 47°
2026-05-07 00:04 35.85912 -115.27798 31053 ft 454 kts 47°
2026-05-07 00:05 35.90116 -115.21957 31032 ft 455 kts 47°
2026-05-07 00:05 35.94307 -115.16125 31027 ft 453 kts 47°
2026-05-07 00:06 35.98476 -115.10312 31019 ft 454 kts 47°
2026-05-07 00:06 36.02648 -115.04486 31007 ft 454 kts 47°
2026-05-07 00:07 36.06841 -114.98620 30998 ft 453 kts 47°
2026-05-07 00:07 36.11007 -114.92782 30996 ft 454 kts 47°
2026-05-07 00:08 36.15181 -114.86921 30998 ft 454 kts 47°
2026-05-07 00:08 36.19234 -114.80956 31004 ft 455 kts 51°
2026-05-07 00:09 36.22988 -114.74613 31011 ft 456 kts 51°
2026-05-07 00:09 36.26714 -114.68289 31020 ft 455 kts 51°
2026-05-07 00:10 36.30472 -114.61906 31014 ft 454 kts 51°
2026-05-07 00:10 36.34193 -114.55577 31007 ft 457 kts 51°
2026-05-07 00:11 36.37936 -114.49198 31002 ft 456 kts 51°
2026-05-07 00:11 36.41662 -114.42837 31003 ft 456 kts 51°
2026-05-07 00:12 36.45394 -114.36454 31004 ft 457 kts 51°
2026-05-07 00:12 36.49131 -114.30051 31002 ft 455 kts 52°
2026-05-07 00:13 36.52872 -114.23630 31002 ft 458 kts 52°
2026-05-07 00:13 36.56593 -114.17229 31017 ft 456 kts 52°
2026-05-07 00:14 36.60325 -114.10798 31027 ft 456 kts 51°
2026-05-07 00:14 36.64037 -114.04391 31027 ft 459 kts 51°
2026-05-07 00:15 36.67765 -113.97943 31028 ft 459 kts 51°
2026-05-07 00:15 36.71494 -113.91479 31051 ft 458 kts 51°
2026-05-07 00:16 36.75196 -113.85053 31072 ft 459 kts 51°
2026-05-07 00:16 36.78931 -113.78554 31111 ft 459 kts 51°
2026-05-07 00:17 36.82642 -113.72087 31117 ft 459 kts 51°
2026-05-07 00:17 36.86359 -113.65597 31111 ft 460 kts 51°
2026-05-07 00:18 36.90087 -113.59072 31098 ft 459 kts 51°
2026-05-07 00:18 36.93790 -113.52582 31081 ft 458 kts 51°
2026-05-07 00:19 36.97476 -113.46108 31068 ft 457 kts 51°
2026-05-07 00:19 37.01163 -113.39621 31080 ft 459 kts 51°
2026-05-07 00:20 37.04857 -113.33107 31101 ft 458 kts 52°
2026-05-07 00:20 37.08570 -113.26547 31131 ft 459 kts 51°
2026-05-07 00:21 37.12244 -113.20043 31170 ft 458 kts 51°
2026-05-07 00:21 37.15937 -113.13494 31192 ft 456 kts 52°
2026-05-07 00:22 37.19588 -113.07006 31205 ft 455 kts 52°
2026-05-07 00:22 37.23260 -113.00470 31216 ft 458 kts 52°
2026-05-07 00:23 37.26929 -112.93924 31229 ft 457 kts 51°
2026-05-07 00:23 37.30588 -112.87386 31230 ft 458 kts 51°
2026-05-07 00:24 37.34240 -112.80843 31233 ft 457 kts 51°
2026-05-07 00:24 37.37878 -112.74317 31241 ft 458 kts 51°
2026-05-07 00:25 37.41525 -112.67760 31241 ft 457 kts 51°
2026-05-07 00:25 37.44545 -112.62322 31246 ft 458 kts 51°
2026-05-07 00:26 37.48796 -112.54649 31246 ft 457 kts 51°
2026-05-07 00:26 37.52457 -112.48028 31246 ft 459 kts 51°
2026-05-07 00:27 37.56077 -112.41468 31246 ft 458 kts 51°
2026-05-07 00:27 37.59723 -112.34848 31252 ft 458 kts 52°
2026-05-07 00:28 37.63312 -112.28168 31246 ft 462 kts 57°
2026-05-07 00:28 37.66216 -112.20866 31256 ft 463 kts 60°
2026-05-07 00:29 37.69028 -112.13528 31276 ft 464 kts 60°
2026-05-07 00:30 37.74633 -111.98823 31258 ft 462 kts 60°
2026-05-07 00:30 37.77419 -111.91482 31266 ft 464 kts 60°
2026-05-07 00:31 37.80204 -111.84129 31270 ft 465 kts 60°
2026-05-07 00:31 37.82985 -111.76765 31265 ft 464 kts 60°
2026-05-07 00:32 37.85762 -111.69396 31271 ft 465 kts 60°
2026-05-07 00:32 37.88534 -111.62018 31270 ft 462 kts 60°
2026-05-07 00:33 37.91305 -111.54628 31257 ft 464 kts 60°
2026-05-07 00:33 37.94080 -111.47211 31272 ft 465 kts 60°
2026-05-07 00:34 37.96841 -111.39811 31244 ft 465 kts 60°
2026-05-07 00:34 37.99593 -111.32416 31237 ft 465 kts 60°
2026-05-07 00:35 38.02353 -111.24985 31216 ft 465 kts 60°
2026-05-07 00:35 38.05107 -111.17550 31216 ft 464 kts 60°
2026-05-07 00:36 38.07853 -111.10118 31183 ft 465 kts 60°
2026-05-07 00:36 38.10593 -111.02685 31191 ft 466 kts 60°
2026-05-07 00:37 38.13331 -110.95239 31200 ft 465 kts 60°
2026-05-07 00:37 38.16076 -110.87755 31213 ft 466 kts 60°
2026-05-07 00:38 38.18807 -110.80290 31204 ft 466 kts 60°
2026-05-07 00:38 38.21539 -110.72804 31196 ft 466 kts 60°
2026-05-07 00:39 38.24271 -110.65299 31188 ft 466 kts 60°
2026-05-07 00:39 38.26970 -110.57865 31183 ft 465 kts 60°
2026-05-07 00:40 38.29690 -110.50357 31185 ft 466 kts 60°
2026-05-07 00:40 38.32399 -110.42860 31191 ft 465 kts 60°
2026-05-07 00:41 38.35109 -110.35341 31191 ft 466 kts 60°
2026-05-07 00:41 38.37815 -110.27814 31194 ft 467 kts 60°
2026-05-07 00:42 38.40516 -110.20284 31189 ft 465 kts 60°
2026-05-07 00:42 38.43203 -110.12772 31187 ft 467 kts 60°
2026-05-07 00:43 38.45898 -110.05218 31183 ft 465 kts 60°
2026-05-07 00:43 38.48582 -109.97677 31176 ft 466 kts 60°
2026-05-07 00:44 38.51253 -109.90153 31170 ft 466 kts 60°
2026-05-07 00:44 38.53929 -109.82595 31175 ft 466 kts 60°
2026-05-07 00:45 38.56583 -109.75080 31175 ft 465 kts 60°
2026-05-07 00:45 38.59252 -109.67504 31181 ft 465 kts 60°
2026-05-07 00:46 38.61898 -109.59973 31178 ft 466 kts 60°
2026-05-07 00:46 38.64556 -109.52390 31179 ft 467 kts 60°
2026-05-07 00:47 38.67136 -109.44812 31183 ft 467 kts 62°
2026-05-07 00:47 38.69645 -109.37125 31188 ft 466 kts 62°
2026-05-07 00:48 38.72150 -109.29450 31183 ft 468 kts 62°
2026-05-07 00:48 38.74651 -109.21776 31194 ft 466 kts 62°
2026-05-07 00:49 38.77141 -109.14121 31200 ft 467 kts 62°
2026-05-07 00:49 38.79637 -109.06429 31198 ft 467 kts 62°
2026-05-07 00:50 38.82128 -108.98734 31204 ft 466 kts 62°
2026-05-07 00:50 38.84612 -108.91042 31205 ft 466 kts 62°
2026-05-07 00:51 38.87076 -108.83391 31197 ft 465 kts 62°
2026-05-07 00:51 38.89546 -108.75700 31196 ft 465 kts 62°
2026-05-07 00:52 38.92026 -108.67960 31200 ft 468 kts 62°
2026-05-07 00:52 38.94475 -108.60291 31204 ft 466 kts 62°
2026-05-07 00:53 38.96939 -108.52555 31198 ft 467 kts 62°
2026-05-07 00:53 38.99377 -108.44878 31193 ft 465 kts 62°
2026-05-07 00:54 39.01808 -108.37206 31205 ft 465 kts 62°
2026-05-07 00:54 39.04265 -108.29430 31202 ft 468 kts 62°
2026-05-07 00:55 39.06705 -108.21683 31216 ft 465 kts 62°
2026-05-07 00:55 39.09143 -108.13924 31232 ft 466 kts 62°
2026-05-07 00:56 39.11566 -108.06187 31253 ft 467 kts 62°
2026-05-07 00:56 39.13987 -107.98438 31247 ft 466 kts 62°
2026-05-07 00:57 39.16407 -107.90669 31248 ft 466 kts 62°
2026-05-07 00:57 39.18813 -107.82925 31258 ft 467 kts 62°
2026-05-07 00:58 39.21225 -107.75136 31258 ft 465 kts 62°
2026-05-07 00:58 39.23625 -107.67366 31264 ft 465 kts 62°
2026-05-07 00:59 39.27211 -107.55718 31262 ft 466 kts 62°
2026-05-07 01:00 39.29597 -107.47938 31256 ft 465 kts 62°
2026-05-07 01:00 39.31971 -107.40178 31262 ft 468 kts 62°
2026-05-07 01:01 39.34351 -107.32365 31267 ft 463 kts 62°
2026-05-07 01:01 39.36711 -107.24611 31268 ft 468 kts 63°
2026-05-07 01:02 39.39415 -107.17027 31273 ft 456 kts 55°
2026-05-07 01:02 39.42568 -107.09815 31255 ft 459 kts 54°
2026-05-07 01:03 39.45688 -107.02648 31245 ft 457 kts 55°
2026-05-07 01:03 39.48820 -106.95425 31243 ft 460 kts 55°
2026-05-07 01:04 39.51950 -106.88180 31246 ft 459 kts 55°
2026-05-07 01:04 39.55036 -106.81017 31245 ft 459 kts 55°
2026-05-07 01:05 39.58157 -106.73753 31242 ft 459 kts 55°
2026-05-07 01:05 39.61257 -106.66522 31230 ft 461 kts 54°
2026-05-07 01:06 39.64351 -106.59284 31213 ft 459 kts 55°
2026-05-07 01:06 39.67457 -106.52003 31192 ft 459 kts 54°
2026-05-07 01:07 39.70535 -106.44770 31172 ft 459 kts 54°
2026-05-07 01:07 39.73630 -106.37480 31166 ft 460 kts 54°
2026-05-07 01:08 39.76716 -106.30193 31153 ft 460 kts 55°
2026-05-07 01:08 39.79799 -106.22897 31151 ft 460 kts 55°
2026-05-07 01:09 39.82885 -106.15578 31152 ft 463 kts 55°
2026-05-07 01:09 39.85964 -106.08252 31149 ft 460 kts 55°
2026-05-07 01:10 39.89036 -106.00929 31145 ft 459 kts 55°
2026-05-07 01:10 39.92101 -105.93609 31155 ft 463 kts 55°
2026-05-07 01:11 39.95160 -105.86279 31168 ft 459 kts 55°
2026-05-07 01:11 39.98219 -105.78935 31182 ft 461 kts 55°
2026-05-07 01:12 40.01277 -105.71575 31154 ft 460 kts 55°
2026-05-07 01:12 40.04317 -105.64243 31146 ft 463 kts 55°
2026-05-07 01:13 40.07371 -105.56853 31138 ft 461 kts 55°
2026-05-07 01:13 40.10428 -105.49445 31154 ft 463 kts 55°
2026-05-07 01:14 40.13484 -105.42015 31162 ft 461 kts 55°
2026-05-07 01:14 40.16503 -105.34660 31148 ft 460 kts 56°
2026-05-07 01:15 40.19541 -105.27242 31139 ft 463 kts 56°
2026-05-07 01:15 40.22573 -105.19817 31143 ft 460 kts 56°
2026-05-07 01:16 40.25583 -105.12434 31141 ft 464 kts 56°
2026-05-07 01:16 40.28623 -105.04953 31141 ft 462 kts 56°
2026-05-07 01:17 40.31624 -104.97551 31131 ft 463 kts 56°
2026-05-07 01:17 40.34636 -104.90104 31126 ft 463 kts 56°
2026-05-07 01:18 40.37640 -104.82656 31137 ft 462 kts 56°
2026-05-07 01:18 40.40652 -104.75175 31135 ft 463 kts 56°
2026-05-07 01:19 40.43637 -104.67736 31135 ft 461 kts 56°
2026-05-07 01:19 40.46640 -104.60238 31134 ft 463 kts 56°
2026-05-07 01:20 40.49635 -104.52740 31126 ft 463 kts 56°
2026-05-07 01:20 40.52623 -104.45241 31113 ft 462 kts 56°
2026-05-07 01:21 40.55612 -104.37721 31105 ft 464 kts 56°
2026-05-07 01:21 40.58585 -104.30220 31104 ft 462 kts 56°
2026-05-07 01:22 40.61560 -104.22697 31097 ft 464 kts 56°
2026-05-07 01:22 40.64536 -104.15152 31096 ft 462 kts 56°
2026-05-07 01:23 40.67508 -104.07601 31090 ft 464 kts 56°
2026-05-07 01:23 40.70461 -104.00075 31090 ft 464 kts 56°
2026-05-07 01:24 40.73430 -103.92489 31091 ft 462 kts 56°
2026-05-07 01:24 40.76366 -103.84969 31078 ft 464 kts 56°
2026-05-07 01:25 40.79339 -103.77336 31075 ft 464 kts 56°
2026-05-07 01:25 40.82284 -103.69752 31075 ft 463 kts 56°
2026-05-07 01:26 40.85202 -103.62221 31074 ft 463 kts 56°
2026-05-07 01:26 40.88141 -103.54617 31056 ft 464 kts 56°
2026-05-07 01:27 40.91089 -103.46970 31057 ft 465 kts 56°
2026-05-07 01:27 40.94001 -103.39391 31063 ft 464 kts 56°
2026-05-07 01:28 40.96942 -103.31726 31056 ft 467 kts 57°
2026-05-07 01:28 40.99866 -103.24077 31035 ft 465 kts 56°
2026-05-07 01:29 41.02785 -103.16427 31034 ft 466 kts 57°
2026-05-07 01:29 41.05696 -103.08768 31040 ft 462 kts 56°
2026-05-07 01:30 41.08584 -103.01161 31058 ft 464 kts 56°
2026-05-07 01:30 41.11968 -102.93919 31083 ft 458 kts 47°
2026-05-07 01:31 41.15715 -102.87113 31061 ft 456 kts 47°
2026-05-07 01:31 41.19461 -102.80267 31044 ft 458 kts 47°
2026-05-07 01:32 41.23193 -102.73410 31042 ft 458 kts 47°
2026-05-07 01:32 41.26930 -102.66517 31030 ft 459 kts 47°
2026-05-07 01:33 41.30637 -102.59656 31030 ft 459 kts 47°
2026-05-07 01:33 41.34370 -102.52729 31037 ft 458 kts 47°
2026-05-07 01:34 41.38076 -102.45838 31030 ft 459 kts 47°
2026-05-07 01:34 41.41765 -102.38959 31031 ft 459 kts 47°
2026-05-07 01:35 41.45519 -102.31947 31027 ft 463 kts 49°
2026-05-07 01:35 41.49237 -102.24979 31025 ft 459 kts 48°
2026-05-07 01:36 41.52958 -102.17993 31019 ft 459 kts 48°
2026-05-07 01:36 41.56674 -102.11004 31018 ft 463 kts 48°
2026-05-07 01:37 41.60387 -102.03999 31019 ft 460 kts 48°
2026-05-07 01:37 41.64094 -101.96992 31016 ft 462 kts 47°
2026-05-07 01:38 41.67804 -101.89962 31010 ft 460 kts 47°
2026-05-07 01:38 41.71486 -101.82971 31011 ft 463 kts 48°
2026-05-07 01:39 41.75184 -101.75930 31008 ft 462 kts 48°
2026-05-07 01:39 41.78850 -101.68935 31000 ft 461 kts 48°
2026-05-07 01:40 41.82556 -101.61848 30998 ft 461 kts 48°
2026-05-07 01:40 41.86211 -101.54843 30989 ft 461 kts 47°
2026-05-07 01:41 41.89915 -101.47729 30997 ft 464 kts 48°
2026-05-07 01:41 41.93591 -101.40648 30998 ft 462 kts 48°
2026-05-07 01:42 41.97258 -101.33570 30986 ft 462 kts 48°
2026-05-07 01:42 42.00964 -101.26400 30977 ft 463 kts 48°
2026-05-07 01:43 42.04607 -101.19334 30982 ft 462 kts 49°
2026-05-07 01:43 42.08308 -101.12144 30979 ft 466 kts 48°
2026-05-07 01:44 42.11962 -101.05017 30993 ft 463 kts 48°
2026-05-07 01:44 42.15635 -100.97846 30993 ft 464 kts 48°
2026-05-07 01:45 42.19299 -100.90675 30990 ft 465 kts 48°
2026-05-07 01:45 42.22956 -100.83494 30990 ft 461 kts 48°
2026-05-07 01:46 42.26614 -100.76303 30995 ft 466 kts 48°
2026-05-07 01:46 42.30271 -100.69087 30998 ft 462 kts 48°
2026-05-07 01:47 42.33908 -100.61901 30998 ft 466 kts 48°
2026-05-07 01:47 42.37557 -100.54670 31001 ft 464 kts 47°
2026-05-07 01:48 42.41206 -100.47424 31003 ft 467 kts 47°
2026-05-07 01:48 42.44860 -100.40148 31008 ft 464 kts 47°
2026-05-07 01:49 42.48479 -100.32929 31006 ft 470 kts 48°
2026-05-07 01:49 42.52158 -100.25567 31003 ft 467 kts 48°
2026-05-07 01:50 42.55793 -100.18276 31002 ft 465 kts 48°
2026-05-07 01:50 42.59427 -100.10975 31010 ft 470 kts 48°
2026-05-07 01:51 42.63078 -100.03612 31018 ft 467 kts 47°
2026-05-07 01:51 42.66695 -99.96305 31011 ft 468 kts 48°
2026-05-07 01:52 42.70314 -99.88977 31004 ft 469 kts 47°
2026-05-07 01:52 42.73933 -99.81627 30998 ft 466 kts 47°
2026-05-07 01:53 42.77568 -99.74231 30987 ft 469 kts 47°
2026-05-07 01:53 42.81175 -99.66872 30986 ft 468 kts 47°
2026-05-07 01:54 42.84795 -99.59473 30990 ft 473 kts 47°
2026-05-07 01:54 42.88428 -99.52017 30987 ft 470 kts 47°
2026-05-07 01:55 42.92041 -99.44591 30996 ft 470 kts 47°
2026-05-07 01:55 42.95641 -99.37170 30993 ft 470 kts 47°
2026-05-07 01:56 42.99285 -99.29648 30989 ft 475 kts 48°
2026-05-07 01:56 43.02890 -99.22173 30980 ft 469 kts 48°
2026-05-07 01:57 43.06485 -99.14713 30987 ft 472 kts 48°
2026-05-07 01:57 43.10096 -99.07196 30985 ft 472 kts 48°
2026-05-07 01:58 43.13744 -98.99587 31004 ft 477 kts 47°
2026-05-07 01:58 43.17354 -98.92027 31006 ft 473 kts 48°
2026-05-07 01:59 43.20987 -98.84410 31004 ft 476 kts 48°
2026-05-07 01:59 43.24623 -98.76764 31000 ft 479 kts 48°
2026-05-07 02:00 43.28270 -98.69070 31000 ft 477 kts 48°
2026-05-07 02:00 43.31887 -98.61427 31000 ft 481 kts 48°
2026-05-07 02:01 43.35522 -98.53717 31000 ft 480 kts 48°
2026-05-07 02:01 43.39151 -98.46008 30996 ft 481 kts 49°
2026-05-07 02:02 43.42803 -98.38226 31001 ft 486 kts 49°
2026-05-07 02:02 43.46487 -98.30354 30988 ft 484 kts 49°
2026-05-07 02:03 43.50141 -98.22530 30991 ft 490 kts 50°
2026-05-07 02:03 43.53820 -98.14623 30993 ft 487 kts 49°
2026-05-07 02:04 43.57459 -98.06786 31000 ft 490 kts 50°
2026-05-07 02:04 43.61119 -97.98879 30997 ft 488 kts 49°
2026-05-07 02:05 43.64808 -97.90893 31003 ft 493 kts 50°
2026-05-07 02:05 43.68462 -97.82954 30996 ft 488 kts 50°
2026-05-07 02:06 43.72112 -97.75011 30997 ft 494 kts 50°
2026-05-07 02:06 43.75797 -97.66963 30992 ft 493 kts 50°